(34541) Gustavosanreyes = 1997 AN24 = 1998 HW52 = 2000 SB228

Discovered at Socorro on 2000-09-28 by LINEAR.
(34541) Gustavosanreyes

Gustavo Xavier Santiago-Reyes (b. 2000) was awarded second place in the 2018 Intel International Science and Engineering Fair for his math team project. He attended the Escuela Especializada en Ciencias, Matematicas y Tecnologia, Caguas, Puerto Rico, U.S.A. [Ref: WGSBN Bull. 2, #16, 6]

Orbit

Orbit type: Main Belt

Note: WebGL enabled browser required.

epoch2024-03-31.0
epoch JD2460400.5
perihelion date2019-09-21.33667
perihelion JD2458747.83667
argument of perihelion (°)33.78156
ascending node (°)216.22282
inclination (°)3.51031
eccentricity0.0404672
perihelion distance (AU)2.8772093
Tisserand w.r.t. Jupiter3.2
ΔV w.r.t. Earth (km/sec)10.6
semimajor axis (AU)2.9985522
mean anomaly (°)313.70455
mean daily motion (°/day)0.18981760
aphelion distance (AU)3.120
period (years)5.19
P-vector [x]-0.34256479
P-vector [y]-0.87494512
P-vector [z]-0.34222857
Q-vector [x]0.93879725
Q-vector [y]-0.33282036
Q-vector [z]-0.08882756
absolute magnitude15.01
phase slope0.15
uncertainty0
referenceMPEC 2024-F14
observations used1279
oppositions20
arc length (days)9922
first opposition used1997
last opposition used2024
residual rms (arc-secs)0.71
perturbers coarse indicatorM-v
perturbers precise indicator003Ek
first observation date used1997-01-15.0
last observation date used2024-03-17.0
computer nameMPCLINUX
JD of orbit computation2456877.783707
perihelion JD uncertainty (days)2.7261E-04
argument of perihelion uncertainty (°)7.4338E-05
ascending node uncertainty (°)5.2830E-05
inclination uncertainty (°)4.3278E-06
eccentricity uncertainty 3.4553E-08
perihelion distance uncertainty (AU)1.0621E-07
Minimum Orbit Intersection Distances (in AU)
for orbit epoch: 2460400.5, reference: E2024-G51
Mercury2.41309
Venus2.15196
Earth1.8639
Mars1.29863
Jupiter1.87151
Saturn5.92977
Uranus15.4523
Neptune26.7235

Observations

1279 total observations over interval: 1997 01 15.89711 – 2024 03 17.280938
These data are available for download (format description).

Date (UT) J2000 RA J2000 Dec Magn Location Ref
1997 01 15.89711 07 46 06.00 +16 04 09.0 20.0 V 599 – Campo Imperatore-CINEOS MPC 29390
1997 01 15.90660 07 46 05.47 +16 04 09.8   599 – Campo Imperatore-CINEOS MPC 29390
1997 01 16.91060 07 45 12.60 +16 06 16.5 19.6 V 599 – Campo Imperatore-CINEOS MPC 29390
1997 01 16.93588 07 45 11.21 +16 06 20.1   599 – Campo Imperatore-CINEOS MPC 29390
1998 03 25.33734 13 31 13.23 -11 19 45.7 18.8   704 – Lincoln Laboratory ETS, New Mexico MPS 20732
1998 03 25.35746 13 31 12.58 -11 19 41.1 19.6   704 – Lincoln Laboratory ETS, New Mexico MPS 20732
1998 03 25.37772 13 31 11.70 -11 19 34.1 19.8   704 – Lincoln Laboratory ETS, New Mexico MPS 20732
1998 03 25.39797 13 31 11.01 -11 19 26.6 19.8   704 – Lincoln Laboratory ETS, New Mexico MPS 20732
1998 04 21.19305 13 11 43.42 -08 55 22.0 18.9   704 – Lincoln Laboratory ETS, New Mexico MPS 1321
1998 04 21.21328 13 11 42.51 -08 55 17.2 18.9   704 – Lincoln Laboratory ETS, New Mexico MPS 1321
1998 04 21.23336 13 11 41.60 -08 55 12.4 19.1   704 – Lincoln Laboratory ETS, New Mexico MPS 1321
1998 04 21.25339 13 11 40.69 -08 55 05.5 18.9   704 – Lincoln Laboratory ETS, New Mexico MPS 1321
1998 04 21.27341 13 11 39.77 -08 54 58.5 18.9   704 – Lincoln Laboratory ETS, New Mexico MPS 1321
1998 04 22.16176 13 11 01.95 -08 49 58.5 19.1   704 – Lincoln Laboratory ETS, New Mexico MPS 1321
1998 04 22.18056 13 11 01.14 -08 49 52.0 19.4   704 – Lincoln Laboratory ETS, New Mexico MPS 1321
1998 04 22.19935 13 11 00.29 -08 49 49.1 19.4   704 – Lincoln Laboratory ETS, New Mexico MPS 1321
1998 04 22.21827 13 10 59.38 -08 49 39.9 19.4   704 – Lincoln Laboratory ETS, New Mexico MPS 1321
1998 04 22.23701 13 10 58.43 -08 49 35.2 19.4   704 – Lincoln Laboratory ETS, New Mexico MPS 1321
2000 09 28.27550 01 28 23.45 +11 01 02.6 19.0   704 – Lincoln Laboratory ETS, New Mexico MPS 20164
2000 09 28.29056 01 28 22.85 +11 00 58.2 19.4   704 – Lincoln Laboratory ETS, New Mexico MPS 20164
2000 09 28.32068 01 28 21.55 +11 00 48.8 19.5   704 – Lincoln Laboratory ETS, New Mexico MPS 20164
2000 09 28.33572 01 28 20.92 +11 00 44.3 20.1   704 – Lincoln Laboratory ETS, New Mexico MPS 20164
2000 10 01.25612 01 26 19.84 +10 46 35.0 19.0   704 – Lincoln Laboratory ETS, New Mexico MPS 20164
2000 10 01.27123 01 26 19.14 +10 46 30.6 19.6   704 – Lincoln Laboratory ETS, New Mexico MPS 20164
2000 10 01.28634 01 26 18.46 +10 46 26.2 19.6   704 – Lincoln Laboratory ETS, New Mexico MPS 20164
2000 10 01.31261 01 26 17.37 +10 46 18.8 19.3   704 – Lincoln Laboratory ETS, New Mexico MPS 20164
2000 10 01.32775 01 26 16.69 +10 46 13.7 19.3   704 – Lincoln Laboratory ETS, New Mexico MPS 20164
2000 10 02.37418 01 25 31.94 +10 40 58.5 19.4   704 – Lincoln Laboratory ETS, New Mexico MPS 20164
2000 10 02.38912 01 25 31.30 +10 40 53.3 19.9   704 – Lincoln Laboratory ETS, New Mexico MPS 20164
2000 10 02.40460 01 25 30.58 +10 40 48.8 18.9   704 – Lincoln Laboratory ETS, New Mexico MPS 20164
2000 10 02.41952 01 25 29.96 +10 40 44.4 19.0   704 – Lincoln Laboratory ETS, New Mexico MPS 20164
2000 10 02.43454 01 25 29.29 +10 40 40.6 19.2   704 – Lincoln Laboratory ETS, New Mexico MPS 20164
2000 10 03.33513 01 24 50.49 +10 36 05.5 19.3   704 – Lincoln Laboratory ETS, New Mexico MPS 20164
2000 10 03.33892 01 24 50.23 +10 36 04.6 19.2   704 – Lincoln Laboratory ETS, New Mexico MPS 20164
2000 10 03.35019 01 24 49.72 +10 36 00.8 19.0   704 – Lincoln Laboratory ETS, New Mexico MPS 20164
2000 10 03.35395 01 24 49.65 +10 35 59.7 19.4   704 – Lincoln Laboratory ETS, New Mexico MPS 20164
2000 10 03.36579 01 24 49.03 +10 35 56.4 19.0   704 – Lincoln Laboratory ETS, New Mexico MPS 20164
2000 10 03.36889 01 24 48.95 +10 35 54.1 19.5   704 – Lincoln Laboratory ETS, New Mexico MPS 20164
2000 10 03.38145 01 24 48.39 +10 35 50.9 18.9   704 – Lincoln Laboratory ETS, New Mexico MPS 20164
2000 10 03.38384 01 24 48.27 +10 35 49.9 19.5   704 – Lincoln Laboratory ETS, New Mexico MPS 20164
2000 10 03.39885 01 24 47.61 +10 35 46.0 19.9   704 – Lincoln Laboratory ETS, New Mexico MPS 20164
2000 10 05.31024 01 23 23.80 +10 25 49.0 19.1   704 – Lincoln Laboratory ETS, New Mexico MPS 20164
2000 10 05.31036 01 23 23.84 +10 25 49.3 19.0   704 – Lincoln Laboratory ETS, New Mexico MPS 20164
2000 10 05.32548 01 23 23.21 +10 25 44.6 19.4   704 – Lincoln Laboratory ETS, New Mexico MPS 20164
2000 10 05.32560 01 23 23.17 +10 25 43.4 19.5   704 – Lincoln Laboratory ETS, New Mexico MPS 20164
2000 10 05.34067 01 23 22.42 +10 25 39.2 19.5   704 – Lincoln Laboratory ETS, New Mexico MPS 20164
2000 10 05.34079 01 23 22.45 +10 25 39.3 19.7   704 – Lincoln Laboratory ETS, New Mexico MPS 20164
2000 10 07.31005 01 21 54.61 +10 15 10.8 19.0 R 699 – Lowell Observatory-LONEOS MPS 21354
2000 10 07.35197 01 21 52.71 +10 14 57.7   699 – Lowell Observatory-LONEOS MPS 21354
2000 10 07.39392 01 21 50.72 +10 14 44.1   699 – Lowell Observatory-LONEOS MPS 21354
2000 10 07.43596 01 21 48.77 +10 14 30.4   699 – Lowell Observatory-LONEOS MPS 21354
2000 10 31.24293 01 04 30.12 +08 04 08.4 19.6   704 – Lincoln Laboratory ETS, New Mexico MPS 21354
2000 10 31.25688 01 04 29.62 +08 04 04.2 19.7   704 – Lincoln Laboratory ETS, New Mexico MPS 21354
2000 10 31.27113 01 04 29.11 +08 04 01.9 19.4   704 – Lincoln Laboratory ETS, New Mexico MPS 21354
2001 11 20.44264 07 10 49.58 +18 35 55.3 19.4   704 – Lincoln Laboratory ETS, New Mexico MPS 41829
2001 11 20.45745 07 10 49.39 +18 35 54.5 20.0   704 – Lincoln Laboratory ETS, New Mexico MPS 41829
2001 11 20.50154 07 10 48.62 +18 35 50.3 19.4   704 – Lincoln Laboratory ETS, New Mexico MPS 41829
2001 12 10.39232 07 01 19.57 +18 23 14.2 19.3   704 – Lincoln Laboratory ETS, New Mexico MPS 43510
2001 12 10.40730 07 01 18.90 +18 23 13.3 19.1   704 – Lincoln Laboratory ETS, New Mexico MPS 43510
2001 12 10.42229 07 01 18.25 +18 23 13.3 19.4   704 – Lincoln Laboratory ETS, New Mexico MPS 43510
2001 12 14.37264 06 58 26.92 +18 22 51.0 19.6   704 – Lincoln Laboratory ETS, New Mexico MPS 43510
2001 12 14.38784 06 58 26.25 +18 22 50.5 19.4   704 – Lincoln Laboratory ETS, New Mexico MPS 43510
2001 12 14.40304 06 58 25.47 +18 22 51.0 19.5   704 – Lincoln Laboratory ETS, New Mexico MPS 43510
2001 12 14.41825 06 58 24.79 +18 22 51.9 19.9   704 – Lincoln Laboratory ETS, New Mexico MPS 43510
2001 12 14.43346 06 58 24.02 +18 22 51.5 19.4   704 – Lincoln Laboratory ETS, New Mexico MPS 43510
2001 12 17.37062 06 56 06.90 +18 22 59.2 19.7   704 – Lincoln Laboratory ETS, New Mexico MPS 43510
2001 12 17.38582 06 56 06.26 +18 22 57.7 19.5   704 – Lincoln Laboratory ETS, New Mexico MPS 43510
2001 12 17.41626 06 56 04.69 +18 22 57.0 19.4   704 – Lincoln Laboratory ETS, New Mexico MPS 43510
2001 12 17.43148 06 56 03.97 +18 22 57.0 19.2   704 – Lincoln Laboratory ETS, New Mexico MPS 43510
2001 12 20.30392 06 53 43.14 +18 23 23.3 19.2   704 – Lincoln Laboratory ETS, New Mexico MPS 43510
2001 12 20.33420 06 53 41.53 +18 23 24.0 19.6   704 – Lincoln Laboratory ETS, New Mexico MPS 43510
2001 12 20.36487 06 53 40.04 +18 23 23.5 19.8   704 – Lincoln Laboratory ETS, New Mexico MPS 43510
2002 01 09.26007 06 36 07.22 +18 32 50.6 19.3   704 – Lincoln Laboratory ETS, New Mexico MPS 51211
2002 01 09.27520 06 36 06.36 +18 32 50.8 19.9   704 – Lincoln Laboratory ETS, New Mexico MPS 51211
2002 01 09.29032 06 36 05.58 +18 32 52.8 19.4   704 – Lincoln Laboratory ETS, New Mexico MPS 51211
2002 01 09.32210 06 36 03.91 +18 32 52.6 19.5   704 – Lincoln Laboratory ETS, New Mexico MPS 51211
2003 03 07.30083 12 22 50.65 -05 46 19.9 18.7   704 – Lincoln Laboratory ETS, New Mexico MPS 75311
2003 03 07.31388 12 22 50.19 -05 46 15.8 19.2   704 – Lincoln Laboratory ETS, New Mexico MPS 75311
2003 03 07.32778 12 22 49.56 -05 46 12.9 19.3   704 – Lincoln Laboratory ETS, New Mexico MPS 75311
2003 03 07.35003 12 22 48.80 -05 46 06.7 19.2   704 – Lincoln Laboratory ETS, New Mexico MPS 75311
